{"data":{"norad_id":69710,"epoch":"2026-09-20T04:31:17.658912Z","epoch_age_seconds":48550,"freshness":"FRESH","line1":"1 69710U 26147G   26263.18839883  .00005679  00000+0  17811-3 0  9997","line2":"2 69710  97.2843 299.5145 0001380  91.9885 268.1516 15.33446057 14186","mean_motion":15.33446057,"eccentricity":0.000138,"inclination_deg":97.2843,"raan_deg":299.5145,"arg_perigee_deg":91.9885,"mean_anomaly_deg":268.1516,"bstar":0.00017811,"rev_number":1418,"period_min":93.906139927555,"perigee_km":464.59560216152,"apogee_km":466.48445702168,"semimajor_km":6843.6770295916,"source":"CELESTRAK","updated_at":"2026-09-20T09:00:44.258518Z"}}